Current Version              Previous Version:    01  02  03  04  05  06  07  08  09  10  11  12  13  14  15  16  17  18  19  20  21  22  23  24  25  26  27  28  29  30  
   31  32  33  34  35  36  37  38  39  40  41  42  43  44  45  46  47  48  49  50  51  52  53  54  55  56  57  58  59  60  

[Printable]
122
ASUS44 KLUB 230101
RWRTX
WEST TEXAS WEATHER ROUNDUP
NATIONAL WEATHER SERVICE LUBBOCK TX
800 PM CDT TUE JUL 22 2014

NOTE: "FAIR" INDICATES FEW OR NO CLOUDS BELOW 12,000 FEET WITH NO
SIGNIFICANT WEATHER AND/OR OBSTRUCTIONS TO VISIBILITY.

TXZ004-006>008-010-012-014-016-OKZ002-230200-
TEXAS PANHANDLE/OKLAHOMA PANHANDLE

CITY           SKY/WX    TMP DP  RH WIND       PRES   REMARKS
AMARILLO       CLOUDY    79  63  57 SW7       30.20R
BORGER         CLOUDY    92  64  39 SE12      30.15R
CANADIAN       CLOUDY    91  60  35 S3        30.11R
DALHART        SUNNY     91  62  37 SE10      30.21R
DUMAS          MOSUNNY   84  63  48 S15       30.20R
GUYMON         MOSUNNY   83  60  45 S13       30.14R
HEREFORD       TSTM      80  70  71 N9        30.24R
PERRYTON       CLOUDY    84  66  54 SE8       30.15R
$$

TXZ026-029-035-045-048-230200-
SOUTHERN PANHANDLE/SOUTH PLAINS/ROLLING PLAINS

CITY           SKY/WX    TMP DP  RH WIND       PRES   REMARKS
CHILDRESS      CLEAR     93  63  36 SE7       30.08R
SEMINOLE       CLOUDY    91  55  30 SE12      30.14S
LUBBOCK        MOCLDY    88  63  43 CALM      30.15R
PLAINVIEW      PTCLDY    84  66  54 SW3       30.16R
SNYDER         CLEAR     94  57  29 E9        30.08R
$$

TXZ052-054-060>062-072-078-127-140-154-169-230200-
PERMIAN BASIN/CONCHO VALLEY/BIG COUNTRY/EDWARDS PLATEAU

CITY           SKY/WX    TMP DP  RH WIND       PRES   REMARKS
ABILENE        CLEAR     94  63  35 SE10      30.05S HX  95
BIG SPRING     MOCLDY    94  55  26 E8        30.09S
BRADY          CLEAR     91  64  40 E5        30.05S
BROWNWOOD      CLEAR     90  68  48 E8        30.04S
JUNCTION       CLEAR     94  62  34 E7        30.03R
MIDLAND        CLOUDY    91  62  37 SE6       30.08S
ODESSA         CLOUDY    92  57  30 SE9       30.10S
SAN ANGELO     CLEAR     93  62  35 E13       30.04R
SONORA         PTCLDY    93  59  31 E8G15     30.08S
SWEETWATER     CLEAR     94  57  29 E12       30.10S
WINK           PTSUNNY   97  50  20 E13       30.04S
$$

TXZ055-058-074-075-080-082-230200-
FAR WEST/SOUTHWEST MOUNTAINS/TRANS PECOS

CITY           SKY/WX    TMP DP  RH WIND       PRES   REMARKS
ALPINE         MOSUNNY   87  54  32 SE12      30.23R
DRYDEN           N/A     97  60  29 E15       30.02R HX  97
EL PASO        TSTM      79  61  53 E17       30.13R
FORT STOCKTON  PTCLDY    93  57  29 SE14      30.08R
GUADALUPE PASS PTSUNNY   83  51  33 E26       30.27R
MARFA          MOSUNNY   84  55  37 E15       30.22R
PRESIDIO       FAIR      98  53  21 NE14      29.98R HX  96
$$

TXZ014-016-019-021>030-083-230200
TEXAS TECH WEST TEXAS MESONET/TEXAS PANHANDLE/NORTHERN SOUTH PLAINS

CITY           SKY/WX    TMP DP  RH WIND       PRES   REMARKS
ABERNATHY 5ENE   N/A     87  62  42 SE3       30.17R
AMARILLO 9NNE    N/A     76  66  73 SW8       30.17F
AMARILLO 7SSE    N/A     75  66  72 S1        30.21R
AMHERST 1NE      N/A     86  62  44 S8        30.18R
BOOTLEG 11WNW    N/A     81  63  54 S13       30.26R
CANADIAN 6E      N/A     85  65  50 E6        30.10R
CAPROCK CYN SP   N/A     87  63  43 E7        30.12R
CHILDRESS 2NNE   N/A     92  63  37 E7        30.07R
CLARENDON 2WSW   N/A     84  64  50 SE6       30.13S
CLAUDE 12SW      N/A     79  69  72 N2        30.17S
DIMMITT 2NE      N/A     84  61  45 SE12      30.21R
FLOYDADA 2NNE    N/A     88  65  46 SE3       30.15R
FRIONA 2NE       N/A     85  60  42 S10       30.22R
GOODLETT 3W      N/A     93  60  33 E9        30.05R
HART 3N          N/A     84  64  49 S5        30.19R
HEREFORD 2NW     N/A     84  62  47 S8        30.21R
MCLEAN 1E        N/A     84  64  50 SE6       30.14R
MEMPHIS 1NE      N/A     91  61  36 E5        30.08R
MULESHOE 2SSW    N/A     84  57  39 SE9       30.20R
OLTON 6S         N/A     85  60  43 SE8       30.18R
PALO DURO SP     N/A     74  68  79 NE1       30.20R
PAMPA 2E         N/A     83  63  50 SE6       30.17R
PLAINVIEW 1S     N/A     87  68  53 SW3       30.16R
SILVERTON 7ESE   N/A     85  63  47 E7        30.15R
TULIA 2ENE       N/A     82  66  57 SW7       30.18R
TURKEY 2WSW      N/A     90  60  37 SE6       30.10R
UMBARGER 3NNE    N/A     73  65  76 NW21      30.25R
$$

TXZ033>036-039>041-045>048-230200
TEXAS TECH WEST TEXAS MESONET/SOUTH PLAINS

CITY           SKY/WX    TMP DP  RH WIND       PRES   REMARKS
AIKEN 3WSW       N/A     86  68  56 S6        30.17R
ANDREWS 2NE      N/A     91  52  26 SE7       30.12S
ANTON 6SSW       N/A     85  66  52 SE1       30.17R
BROWNFIELD 2S    N/A     85  62  45 NE6       30.15R
DENVR CTY 7WNW   N/A     89  52  28 E14       30.15S
GAIL 2ESE        N/A     93  56  28 SE5       30.07S
LAMESA 2SE       N/A     91  55  30 E8        30.11S
LEVELLAND 4S     N/A     80  69  69 NE1       30.17R
LUBBOCK 3WNW     N/A     86  62  45 CALM      30.16R
MORTON 1ENE      N/A     83  62  48 E6        30.18S
ODONNELL 1N      N/A     89  55  31 E7        30.12R
PLAINS 3N        N/A     83  63  49 E7        30.17R
RALLS 1SE        N/A     86  65  48 E7        30.14R
REESE CENTER     N/A     85  62  46 NE2       30.16R
SEAGRAVES 1SW    N/A     89  55  31 E6        30.14R
SEMINOLE 2NNE    N/A     91  55  29 E9        30.13S
SLATON 2NE       N/A     88  63  42 CALM      30.13S
SNYDER 3E        N/A     94  55  26 E13       30.06S
SUNDOWN 8SW      N/A     85  61  45 E6        30.18R
TAHOKA 3NNE      N/A     88  62  41 E2        30.12R
WOLFFORTH 6SSW   N/A     81  64  56 N5        30.16R
$$

TXZ031-032-036>038-042>044-230200-
TEXAS TECH WEST TEXAS MESONET/ROLLING PLAINS

CITY           SKY/WX    TMP DP  RH WIND       PRES   REMARKS
ASPERMONT 3NE    N/A     96  61  31 E8        30.04S HX  96
FLUVANNA 3WNW    N/A     92  56  29 SE6       30.09R
GRAHAM 5SSW      N/A     91  56  30 E3        30.10S
GUTHRIE 10WSW    N/A     94  62  34 E7        30.05S
HASKELL 1NW      N/A     94  60  31 E6        30.03S
JAYTON 1SSE      N/A     94  61  32 E12       30.05R
KNOX CITY 3NW    N/A     97  55  23 E7        30.03S HX  95
LK A HENRY 1NW   N/A     96  54  24 E9        30.05S
NORTHFIELD 1S    N/A     91  62  38 SE6       30.07R
ODELL 4ENE       N/A     93  66  40 E9        30.05S HX  96
PADUCAH 10SW     N/A     91  60  34 SE6       30.06S
POST 1NE         N/A     91  57  31 SW2       30.08S
RRING SPRGS 3N   N/A     90  61  37 SE6       30.11R
SEYMOUR 3NW      N/A     94  64  35 E9        30.03R HX  96
SPUR 1W          N/A     92  60  34 E7        30.07R
WEINERT 2NNE     N/A     95  64  35 E7        30.03S HX  97
WHITE RVR 6NE    N/A     90  61  37 NE8       30.09S
$$

TXZ052-054-060>062-072-078-127-140-154-169-230200-
TEXAS TECH WEST TEXAS MESONET/PERMIAN BASIN/
CONCHO VALLEY/BIG COUNTRY/EDWARDS PLATEAU

CITY           SKY/WX    TMP DP  RH WIND       PRES   REMARKS
COYANOSA 2N      N/A     97  56  24 E8        30.04S HX  95
JUNCTION 1SSW    N/A     94  63  34 SE5       30.03S HX  95
MERTZON 3NNE     N/A     94  64  37 E8        30.06R HX  95
SAN ANGELO 7NW   N/A     93  59  31 E13       30.05R
STRLNG CT 4WSW   N/A     94  60  31 E15       30.07R
ST LAWRNCE 5SW   N/A     92  58  31 SE8       30.08S
SWEETWATR 11SW   N/A     93  60  33 SE13      30.10R
WALL 1E          N/A     93  60  33 E12       30.05S
$$

TXZ055-058-074-075-080-082-230200-
TEXAS TECH WEST TEXAS MESONET/FAR WEST/SOUTHWEST MOUNTAINS/TRANS PECOS

CITY           SKY/WX    TMP DP  RH WIND       PRES   REMARKS
GUADLPE MTN NP   N/A     82  52  35 E8        30.29R
$$